Location: Lake Sonoma
(38.7200°N, 123.0564°W)
Time: 01:24:03
(UTC-07:00)

ISS - All Passes

Search period start: 25 April 2014 00:00
Search period end: 05 May 2014 00:00
Orbit: 413 x 418 km, 51.6° (Epoch: 25 April)

Date Brightness Start Highest point End Pass type
(mag) Time Alt. Az. Time Alt. Az. Time Alt. Az.
25 Apr - 12:39:13 10° SSW 12:42:06 27° SE 12:44:59 10° ENE daylight
25 Apr - 14:15:43 10° W 14:18:45 31° NNW 14:21:47 10° NE daylight
25 Apr - 15:55:24 10° NNW 15:56:17 11° NNW 15:57:10 10° N daylight
25 Apr - 17:33:45 10° N 17:34:16 10° N 17:34:47 10° NNE daylight
25 Apr - 19:08:56 10° NNW 19:11:53 27° NNE 19:14:48 10° E daylight
25 Apr - 20:45:33 10° WNW 20:48:37 34° SW 20:51:39 10° SSE visible
26 Apr - 11:51:20 10° SSE 11:53:21 15° SE 11:55:22 10° E daylight
26 Apr - 13:26:29 10° WSW 13:29:44 52° NW 13:33:00 10° NE daylight
26 Apr - 15:05:24 10° NW 15:07:03 13° NNW 15:08:43 10° NNE daylight
26 Apr - 18:20:15 10° NNW 18:22:45 19° NNE 18:25:15 10° ENE daylight
26 Apr - 19:56:24 10° WNW 19:59:44 65° SW 20:03:01 10° SE daylight
27 Apr - 12:37:21 10° SW 12:40:40 86° SE 12:44:00 10° NE daylight
27 Apr - 14:15:28 10° WNW 14:17:44 17° NNW 14:20:00 10° NNE daylight
27 Apr - 17:31:29 10° NNW 17:33:26 15° NNE 17:35:23 10° NE daylight
27 Apr - 19:07:19 10° NW 19:10:38 67° NE 19:13:57 10° ESE daylight
27 Apr - 20:45:40 10° WSW 20:46:55 12° SW 20:48:09 10° SSW visible
28 Apr - 11:48:21 10° SSW 11:51:31 44° SE 11:54:43 10° ENE daylight
28 Apr - 13:25:36 10° W 13:28:20 23° NNW 13:31:05 10° NNE daylight
28 Apr - 16:42:42 10° N 16:43:56 12° NNE 16:45:10 10° NE daylight
28 Apr - 18:18:12 10° NW 18:21:22 38° NNE 18:24:30 10° ESE daylight
28 Apr - 19:55:16 10° W 19:57:52 21° SW 20:00:28 10° S daylight
29 Apr - 10:59:36 10° S 11:02:19 24° SE 11:05:03 10° ENE daylight
29 Apr - 12:35:47 10° W 12:38:52 35° NNW 12:41:58 10° NE daylight
29 Apr - 14:15:16 10° NNW 14:16:20 11° NNW 14:17:23 10° N daylight
29 Apr - 17:29:03 10° NNW 17:31:53 25° NNE 17:34:41 10° E daylight
29 Apr - 19:05:30 10° WNW 19:08:38 39° SW 19:11:45 10° SSE daylight
30 Apr - 10:11:27 10° SSE 10:13:03 13° SE 10:14:39 10° E daylight
30 Apr - 11:46:04 10° WSW 11:49:21 60° NW 11:52:38 10° NE daylight
30 Apr - 13:24:45 10° NW 13:26:34 14° NNW 13:28:23 10° NNE daylight
30 Apr - 16:39:51 10° NNW 16:42:12 18° NNE 16:44:32 10° ENE daylight
30 Apr - 18:15:53 10° NW 18:19:12 77° SW 18:22:30 10° SE daylight
01 May - 10:56:27 10° SW 10:59:45 72° SE 11:03:04 10° NE daylight
01 May - 12:34:19 10° WNW 12:36:43 18° NNW 12:39:07 10° NNE daylight
01 May - 15:50:35 10° NNW 15:52:20 13° NNE 15:54:04 10° NE daylight
01 May - 17:26:17 10° NW 17:29:34 56° NE 17:32:49 10° ESE daylight
01 May - 19:04:05 10° W 19:05:52 14° SW 19:07:39 10° SSW daylight
02 May - 10:07:02 10° SSW 10:10:06 36° SE 10:13:11 10° ENE daylight
02 May - 11:43:57 10° W 11:46:48 26° NNW 11:49:39 10° NNE daylight
02 May - 15:01:21 10° N 15:02:16 11° NNE 15:03:12 10° NNE daylight
02 May - 16:36:40 10° NW 16:39:43 33° NNE 16:42:45 10° E daylight
02 May - 18:13:29 10° WNW 18:16:16 25° SW 18:19:03 10° S daylight
03 May - 09:17:55 10° S 09:20:23 20° SE 09:22:51 10° E daylight
03 May - 10:53:39 10° WSW 10:56:49 41° NNW 10:59:59 10° NE daylight
03 May - 12:32:51 10° NW 12:34:10 12° NNW 12:35:29 10° N daylight
03 May - 15:47:01 10° NNW 15:49:41 22° NNE 15:52:20 10° E daylight
03 May - 17:23:16 10° WNW 17:26:29 49° SW 17:29:40 10° SSE daylight
04 May - 08:30:00 10° SE 08:30:36 10° SE 08:31:12 10° ESE daylight
04 May - 10:03:28 10° SW 10:06:46 75° NW 10:10:05 10° NE daylight
04 May - 11:41:51 10° WNW 11:43:52 15° NNW 11:45:54 10° NNE daylight
04 May - 14:57:18 10° NNW 14:59:27 16° NNE 15:01:34 10° ENE daylight
04 May - 16:33:10 10° NW 16:36:30 85° NE 16:39:47 10° SE daylight
